Location: Savignano sul Rubicone
(44.0950°N, 12.4090°E)
Time: 09:13:38
(UTC+01:00)

UWE-3 - Visible Passes

Search period start: 13 December 2019 00:00
Search period end: 23 December 2019 00:00
Orbit: 585 x 683 km, 97.6° (Epoch: 12 December)

Date Brightness Start Highest point End Pass type
(mag) Time Alt. Az. Time Alt. Az. Time Alt. Az.
13 Dec ? 05:06:00 10° NE 05:09:32 24° E 05:12:59 10° SSE visible
13 Dec ? 06:42:08 10° N 06:46:00 32° WNW 06:49:47 10° SW visible
13 Dec ? 17:39:28 10° SSW 17:43:46 36° W 17:48:02 10° NNW visible
14 Dec ? 05:27:12 10° NNE 05:31:18 40° E 05:35:17 10° SSE visible
14 Dec ? 18:01:55 10° SW 18:05:33 22° W 18:09:10 10° NW visible
15 Dec ? 05:48:41 10° NNE 05:53:01 71° ESE 05:57:12 10° S visible
15 Dec ? 18:25:05 10° WSW 18:27:25 14° W 18:29:44 10° WNW visible
16 Dec ? 04:36:20 10° ENE 04:37:41 11° E 04:39:02 10° ESE visible
16 Dec ? 06:10:20 10° N 06:14:38 67° WNW 06:18:47 10° SSW visible
16 Dec ? 17:07:33 10° S 17:12:12 75° W 17:16:48 10° NNW visible
17 Dec ? 04:56:28 10° NE 04:59:34 19° E 05:02:35 10° SE visible
17 Dec ? 06:32:10 10° N 06:36:10 39° WNW 06:40:04 10° SW visible
17 Dec ? 17:29:27 10° S 17:33:53 44° W 17:38:17 10° NNW visible
18 Dec ? 05:17:31 10° NNE 05:21:22 32° E 05:25:07 10° SSE visible
18 Dec ? 06:54:12 10° NNW 06:57:39 24° WNW 07:01:00 10° WSW visible
18 Dec ? 17:51:43 10° SSW 17:55:39 27° W 17:59:33 10° NW visible
19 Dec ? 05:38:53 10° NNE 05:43:05 55° E 05:47:11 10° S visible
19 Dec ? 18:14:31 10° SW 18:17:28 17° W 18:20:24 10° NW visible
20 Dec ? 06:00:27 10° NNE 06:04:44 84° WNW 06:08:54 10° SSW visible
21 Dec ? 04:47:04 10° NE 04:49:33 15° E 04:52:01 10° SE visible
21 Dec ? 06:22:12 10° N 06:26:18 48° WNW 06:30:18 10° SSW visible
21 Dec ? 17:19:30 10° S 17:24:01 55° W 17:28:28 10° NNW visible
22 Dec ? 05:07:51 10° NE 05:11:23 25° E 05:14:50 10° SSE visible
22 Dec ? 06:44:09 10° N 06:47:49 29° WNW 06:51:23 10° SW visible
22 Dec ? 17:41:36 10° SSW 17:45:44 33° W 17:49:50 10° NNW visible
